FW5910 Weather Reports


Display with metric or nautical units.
time (UTC)temp
F
wind
direction
speed
MPH
gust
MPH
rain 1hr
in
rain 24hr
in
rain mn
in
humidity
%
barometer
mb
20220522132922 33 293 0.0 0.0 0.00 0.00 0.00 73 1022.3
20220522132422 32 292 0.0 0.0 0.00 0.00 0.00 73 1022.3
20220522131922 31 293 0.0 0.0 0.00 0.00 0.00 71 1022.2
20220522131420 30 293 0.0 0.0 0.00 0.00 0.00 70 1022.1
20220522130920 30 293 0.0 0.0 0.00 0.00 0.00 70 1022.2
20220522130418 30 293 0.0 0.0 0.00 0.00 0.00 71 1022.2
20220522125920 30 293 0.0 0.0 0.00 0.00 0.00 71 1022.2
20220522125418 30 293 0.0 0.0 0.00 0.00 0.00 71 1022.1
20220522124916 30 293 0.0 0.0 0.00 0.00 0.00 72 1022.1
20220522124414 30 293 0.0 0.0 0.00 0.00 0.00 72 1022.0
20220522123914 30 293 0.0 1.0 0.00 0.00 0.00 71 1022.0
20220522123410 30 293 1.0 2.0 0.00 0.00 0.00 72 1022.0
20220522122908 30 293 1.0 2.0 0.00 0.00 0.00 72 1022.1
20220522122405 30 293 0.0 1.0 0.00 0.00 0.00 71 1022.1
20220522121905 30 293 0.0 2.0 0.00 0.00 0.00 71 1022.1
20220522121405 30 293 0.0 2.0 0.00 0.00 0.00 72 1022.1
20220522120906 30 293 0.0 0.0 0.00 0.00 0.00 72 1022.1
20220522120407 31 293 0.0 0.0 0.00 0.00 0.00 72 1022.0
20220522115905 31 293 0.0 0.0 0.00 0.00 0.00 73 1022.0
20220522115406 31 293 0.0 0.0 0.00 0.00 0.00 73 1021.9
20220522114906 31 293 0.0 0.0 0.00 0.00 0.00 75 1022.0
20220522114405 31 293 0.0 0.0 0.00 0.00 0.00 76 1021.9
20220522113906 30 293 0.0 0.0 0.00 0.00 0.00 75 1022.0
20220522113405 30 293 0.0 0.0 0.00 0.00 0.00 73 1022.0
20220522112906 30 293 0.0 0.0 0.00 0.00 0.00 72 1021.9
20220522112404 30 293 0.0 0.0 0.00 0.00 0.00 72 1022.0
20220522111902 30 293 0.0 0.0 0.00 0.00 0.00 72 1022.0
20220522111402 30 292 0.0 0.0 0.00 0.00 0.00 71 1021.9
20220522110902 30 292 0.0 0.0 0.00 0.00 0.00 71 1021.9
20220522110402 31 293 0.0 0.0 0.00 0.00 0.00 70 1022.0
20220522105902 31 293 0.0 1.0 0.00 0.00 0.00 70 1021.9
20220522105402 32 292 0.0 1.0 0.00 0.00 0.00 71 1022.0
20220522104902 32 292 0.0 2.0 0.00 0.00 0.00 71 1021.9
20220522104402 32 293 0.0 2.0 0.00 0.00 0.00 71 1021.9
20220522103902 32 292 0.0 1.0 0.00 0.00 0.00 70 1022.0
20220522103402 32 292 0.0 2.0 0.00 0.00 0.00 70 1022.1
20220522102902 33 292 1.0 3.0 0.00 0.00 0.00 70 1022.0
20220522102402 33 292 1.0 3.0 0.00 0.00 0.00 72 1022.1
20220522101902 33 293 0.0 0.0 0.00 0.00 0.00 71 1022.1
20220522101401 32 293 0.0 0.0 0.00 0.00 0.00 69 1022.1
20220522100902 32 293 0.0 0.0 0.00 0.00 0.00 68 1022.1
20220522100402 32 293 0.0 2.0 0.00 0.00 0.00 67 1022.1
20220522095902 32 293 1.0 2.0 0.00 0.00 0.00 67 1022.0
20220522095403 32 293 0.0 1.0 0.00 0.00 0.00 67 1022.0
20220522094902 32 293 1.0 2.0 0.00 0.00 0.00 66 1022.0
20220522094402 32 293 2.0 3.0 0.00 0.00 0.00 66 1022.0
20220522093902 32 293 1.0 3.0 0.00 0.00 0.00 66 1022.0
20220522093402 32 293 1.0 2.0 0.00 0.00 0.00 65 1022.0
20220522092902 33 293 1.0 3.0 0.00 0.00 0.00 65 1022.1
20220522092402 33 293 1.0 3.0 0.00 0.00 0.00 64 1022.1
20220522091902 34 293 1.0 2.0 0.00 0.00 0.00 65 1022.1
20220522091402 34 292 1.0 2.0 0.00 0.00 0.00 62 1022.2
20220522090902 34 291 1.0 2.0 0.00 0.00 0.00 63 1022.1
20220522090402 34 291 1.0 3.0 0.00 0.00 0.00 64 1022.2
20220522085902 35 292 1.0 3.0 0.00 0.00 0.00 63 1022.2
20220522085359 35 291 1.0 4.0 0.00 0.00 0.00 66 1022.2
20220522084858 35 291 1.0 4.0 0.00 0.00 0.00 67 1022.1
20220522084358 35 301 0.0 0.0 0.00 0.00 0.00 67 1022.1
20220522083856 35 0 0.0 0.0 0.00 0.00 0.00 68 1022.1
20220522083400 35 0 0.0 0.0 0.00 0.00 0.00 67 1022.1
20220522082855 36 304 0.0 0.0 0.00 0.00 0.00 67 1022.1
20220522082353 36 0 0.0 0.0 0.00 0.00 0.00 67 1022.0
20220522081853 36 0 0.0 0.0 0.00 0.00 0.00 68 1022.0
20220522081354 36 0 0.0 0.0 0.00 0.00 0.00 68 1022.0
20220522080852 36 304 0.0 0.0 0.00 0.00 0.00 68 1022.0
20220522080352 36 304 0.0 0.0 0.00 0.00 0.00 65 1022.0
20220522075852 36 304 0.0 0.0 0.00 0.00 0.00 62 1022.1
20220522075352 36 303 0.0 0.0 0.00 0.00 0.00 63 1022.0
20220522074852 36 0 0.0 0.0 0.00 0.00 0.00 64 1022.0
20220522074350 36 306 0.0 0.0 0.00 0.00 0.00 63 1021.9
20220522073847 36 0 0.0 0.0 0.00 0.00 0.00 64 1022.0
20220522073350 37 0 0.0 0.0 0.00 0.00 0.00 64 1022.1
20220522072847 37 305 0.0 0.0 0.00 0.00 0.00 63 1022.1
20220522072343 38 0 0.0 0.0 0.00 0.00 0.00 63 1022.1
20220522071844 38 0 0.0 0.0 0.00 0.00 0.00 63 1022.0
20220522071343 38 305 0.0 0.0 0.00 0.00 0.00 64 1022.1
20220522070842 38 305 0.0 0.0 0.00 0.00 0.00 64 1022.1
20220522070341 38 305 0.0 0.0 0.00 0.00 0.00 64 1022.1
20220522065842 38 305 0.0 0.0 0.00 0.00 0.00 62 1022.2
20220522065342 38 305 0.0 0.0 0.00 0.00 0.00 60 1022.1
20220522064840 39 305 0.0 0.0 0.00 0.00 0.00 57 1022.1
20220522064339 40 305 0.0 0.0 0.00 0.00 0.00 57 1022.1
20220522063840 40 302 0.0 0.0 0.00 0.00 0.00 57 1022.2
20220522063338 40 302 0.0 0.0 0.00 0.00 0.00 57 1022.1
20220522062837 41 302 0.0 0.0 0.00 0.00 0.00 57 1022.2
20220522062333 41 302 0.0 1.0 0.00 0.00 0.00 54 1022.2
20220522061833 41 302 1.0 3.0 0.00 0.00 0.00 52 1022.2
20220522061329 41 302 2.0 3.0 0.00 0.00 0.00 51 1022.2
20220522060829 41 317 1.0 3.0 0.00 0.00 0.00 52 1022.3
20220522060330 41 325 1.0 3.0 0.00 0.00 0.00 47 1022.1
20220522055830 41 325 1.0 2.0 0.00 0.00 0.00 47 1022.2
20220522055329 41 325 1.0 2.0 0.00 0.00 0.00 47 1022.3
20220522054829 42 325 1.0 3.0 0.00 0.00 0.00 48 1022.3
20220522054330 42 325 2.0 3.0 0.00 0.00 0.00 47 1022.3
20220522053827 42 325 1.0 3.0 0.00 0.00 0.00 46 1022.3
20220522053328 42 316 1.0 2.0 0.00 0.00 0.00 44 1022.2
20220522052827 43 317 1.0 2.0 0.00 0.00 0.00 43 1022.2
20220522052327 43 317 1.0 3.0 0.00 0.00 0.00 43 1022.3
20220522051827 43 317 2.0 4.0 0.00 0.00 0.00 42 1022.2
20220522051328 44 315 1.0 4.0 0.00 0.00 0.00 42 1022.2
20220522050827 44 336 1.0 2.0 0.00 0.00 0.00 42 1022.2
20220522050328 45 332 1.0 2.0 0.00 0.00 0.00 41 1022.2
20220522045828 46 332 1.0 2.0 0.00 0.00 0.00 41 1022.1
20220522045323 46 332 1.0 3.0 0.00 0.00 0.00 38 1022.2
20220522044823 46 331 2.0 3.0 0.00 0.00 0.00 35 1022.2
20220522044323 46 331 2.0 4.0 0.00 0.00 0.00 36 1022.1
20220522043824 47 332 2.0 7.0 0.00 0.00 0.00 36 1022.2
20220522043324 47 98 2.0 7.0 0.00 0.00 0.00 34 1022.1
20220522042821 48 271 2.0 6.0 0.00 0.00 0.00 34 1022.1
20220522042322 49 271 2.0 6.0 0.00 0.00 0.00 32 1022.2
20220522041822 50 109 4.0 8.0 0.00 0.00 0.00 31 1022.1
20220522041321 51 107 7.0 11.0 0.00 0.00 0.00 28 1022.1
20220522040819 51 107 8.0 13.0 0.00 0.00 0.00 30 1022.0
20220522040319 51 111 8.0 14.0 0.00 0.00 0.00 32 1022.0
20220522035819 51 123 8.0 14.0 0.00 0.00 0.00 30 1021.9
20220522035319 51 131 8.0 13.0 0.00 0.00 0.00 28 1022.0
20220522034819 51 108 9.0 13.0 0.00 0.00 0.00 27 1022.0
20220522034318 51 118 10.0 15.0 0.00 0.00 0.00 29 1022.0
20220522033812 51 117 8.0 15.0 0.00 0.00 0.00 28 1021.9
20220522033310 51 0 7.0 11.0 0.00 0.00 0.00 29 1021.9
20220522032809 51 126 9.0 15.0 0.00 0.00 0.00 32 1021.9
20220522032309 51 127 11.0 18.0 0.00 0.00 0.00 28 1021.6
20220522031810 51 119 11.0 18.0 0.00 0.00 0.00 29 1021.6
20220522031309 51 135 12.0 18.0 0.00 0.00 0.00 28 1021.6
20220522030809 51 121 11.0 18.0 0.00 0.00 0.00 28 1021.6
20220522030310 51 113 11.0 17.0 0.00 0.00 0.00 27 1021.6
20220522025809 52 113 11.0 17.0 0.00 0.00 0.00 30 1021.8
20220522025310 52 121 10.0 16.0 0.00 0.00 0.00 26 1021.6
20220522024809 52 125 11.0 15.0 0.00 0.00 0.00 29 1021.8
20220522024309 52 130 12.0 17.0 0.00 0.00 0.00 30 1021.8
20220522023809 52 117 11.0 17.0 0.00 0.00 0.00 27 1021.8
20220522023310 52 117 12.0 17.0 0.00 0.00 0.00 28 1021.6
20220522022809 52 123 12.0 17.0 0.00 0.00 0.00 27 1021.8
20220522022301 52 115 11.0 17.0 0.00 0.00 0.00 27 1021.6
20220522021801 52 121 11.0 17.0 0.00 0.00 0.00 27 1021.8
20220522021302 52 124 10.0 17.0 0.00 0.00 0.00 29 1021.8
20220522020801 52 126 9.0 17.0 0.00 0.00 0.00 28 1021.8
20220522020301 52 98 8.0 13.0 0.00 0.00 0.00 26 1021.8
20220522015801 52 106 9.0 16.0 0.00 0.00 0.00 27 1021.9
20220522015301 52 111 9.0 16.0 0.00 0.00 0.00 28 1021.9
20220522014801 52 108 8.0 14.0 0.00 0.00 0.00 30 1021.9
20220522014301 52 126 9.0 15.0 0.00 0.00 0.00 27 1022.0
20220522013801 53 130 9.0 15.0 0.00 0.00 0.00 26 1022.0
20220522013302 53 135 8.0 13.0 0.00 0.00 0.00 27 1022.0
20220522012800 53 101 8.0 13.0 0.00 0.00 0.00 26 1022.0
20220522012301 53 90 9.0 14.0 0.00 0.00 0.00 27 1021.9
20220522011801 53 113 8.0 14.0 0.00 0.00 0.00 25 1021.9
20220522011301 53 92 7.0 13.0 0.00 0.00 0.00 26 1021.9
20220522010801 53 128 8.0 13.0 0.00 0.00 0.00 27 1021.9
20220522010302 53 132 9.0 14.0 0.00 0.00 0.00 25 1021.9
20220522005801 53 107 9.0 14.0 0.00 0.00 0.00 24 1021.9
20220522005301 53 122 7.0 13.0 0.00 0.00 0.00 26 1021.9
20220522004801 53 113 6.0 13.0 0.00 0.00 0.00 24 1021.8
20220522004301 53 111 7.0 11.0 0.00 0.00 0.00 27 1021.9
20220522003801 53 115 7.0 11.0 0.00 0.00 0.00 24 1021.9
20220522003305 53 115 7.0 11.0 0.00 0.00 0.00 26 1021.9
20220522002804 53 130 8.0 11.0 0.00 0.00 0.00 26 1021.9
20220522002302 53 115 8.0 13.0 0.00 0.00 0.00 27 1021.9
20220522001801 53 90 8.0 14.0 0.00 0.00 0.00 26 1021.9
20220522001302 53 126 7.0 14.0 0.00 0.00 0.00 27 1021.9
20220522000801 53 103 5.0 11.0 0.00 0.00 0.00 26 1021.9
20220522000301 53 119 6.0 12.0 0.00 0.00 0.00 26 1021.9
20220521235801 53 104 8.0 15.0 0.00 0.00 0.00 26 1022.0
20220521235302 53 115 9.0 15.0 0.00 0.00 0.00 30 1022.0
20220521234800 53 109 10.0 15.0 0.00 0.00 0.00 25 1022.0
20220521234301 53 107 10.0 16.0 0.00 0.00 0.00 27 1022.1
20220521233801 53 111 9.0 16.0 0.00 0.00 0.00 26 1021.9
20220521233301 53 101 9.0 15.0 0.00 0.00 0.00 25 1022.0
20220521232801 53 126 9.0 13.0 0.00 0.00 0.00 26 1021.9
20220521232301 53 130 8.0 13.0 0.00 0.00 0.00 26 1022.0
20220521231800 53 111 7.0 16.0 0.00 0.00 0.00 27 1021.9
20220521231301 53 107 10.0 16.0 0.00 0.00 0.00 25 1021.9
20220521230800 53 107 10.0 16.0 0.00 0.00 0.00 25 1022.0
20220521230301 54 122 5.0 13.0 0.00 0.00 0.00 27 1022.0
20220521225802 56 119 1.0 11.0 0.00 0.00 0.00 24 1022.0
20220521225301 56 38 1.0 3.0 0.00 0.00 0.00 22 1021.9
20220521224801 55 28 1.0 3.0 0.00 0.00 0.00 24 1021.9
20220521224304 55 14 2.0 4.0 0.00 0.00 0.00 23 1022.0
20220521223807 55 9 2.0 4.0 0.00 0.00 0.00 22 1021.9
20220521223306 55 44 1.0 3.0 0.00 0.00 0.00 22 1022.0
20220521222804 55 85 2.0 6.0 0.00 0.00 0.00 23 1022.0
20220521222306 54 88 2.0 6.0 0.00 0.00 0.00 22 1022.1
20220521221805 54 63 4.0 12.0 0.00 0.00 0.00 24 1022.0
20220521221305 54 67 5.0 12.0 0.00 0.00 0.00 24 1022.0
20220521220804 53 88 6.0 11.0 0.00 0.00 0.00 26 1022.1
20220521220304 53 104 6.0 15.0 0.00 0.00 0.00 26 1022.1
20220521215803 53 100 7.0 15.0 0.00 0.00 0.00 28 1022.1
20220521215308 53 116 8.0 16.0 0.00 0.00 0.00 26 1022.1
20220521214806 53 123 6.0 16.0 0.00 0.00 0.00 25 1022.1
20220521214308 54 170 3.0 9.0 0.00 0.00 0.00 24 1022.1
20220521213805 55 205 2.0 6.0 0.00 0.00 0.00 22 1022.1
20220521213305 54 202 3.0 6.0 0.00 0.00 0.00 24 1022.1
20220521212803 54 126 4.0 10.0 0.00 0.00 0.00 24 1022.2
20220521212306 55 126 3.0 10.0 0.00 0.00 0.00 24 1022.2
20220521211811 56 158 2.0 6.0 0.00 0.00 0.00 24 1022.3
20220521211304 56 107 2.0 4.0 0.00 0.01 0.00 24 1022.2
20220521210804 56 97 2.0 5.0 0.00 0.01 0.00 24 1022.3
20220521210307 57 77 3.0 12.0 0.00 0.01 0.00 24 1022.3
20220521205805 57 76 3.0 12.0 0.00 0.01 0.00 25 1022.4
20220521205304 58 24 2.0 4.0 0.00 0.01 0.00 23 1022.4
20220521204810 57 19 2.0 8.0 0.00 0.01 0.00 23 1022.4
20220521204304 56 343 2.0 8.0 0.00 0.01 0.00 25 1022.4
20220521203803 55 22 2.0 5.0 0.00 0.01 0.00 28 1022.5
20220521203308 56 75 2.0 6.0 0.00 0.01 0.00 25 1022.6
20220521202800 55 82 1.0 6.0 0.00 0.01 0.00 27 1022.7
20220521202300 55 14 1.0 4.0 0.00 0.01 0.00 27 1022.7
20220521201801 54 10 2.0 6.0 0.00 0.01 0.00 25 1022.8
20220521201301 54 63 2.0 6.0 0.00 0.01 0.00 28 1022.8
20220521200801 54 340 2.0 5.0 0.00 0.01 0.00 27 1023.0
20220521200301 53 339 2.0 5.0 0.00 0.01 0.00 27 1023.0
20220521195800 53 195 3.0 5.0 0.00 0.01 0.00 28 1023.0
20220521195301 53 211 2.0 5.0 0.00 0.01 0.00 29 1022.8
20220521194801 52 221 2.0 3.0 0.00 0.01 0.00 29 1023.0
20220521194301 52 236 1.0 3.0 0.00 0.01 0.00 29 1023.0
20220521193802 52 247 2.0 3.0 0.00 0.01 0.00 28 1023.0
20220521193257 52 247 2.0 4.0 0.00 0.01 0.00 30 1023.1
20220521192750 52 248 2.0 4.0 0.00 0.01 0.00 27 1023.1
20220521192244 52 226 1.0 4.0 0.00 0.01 0.00 30 1023.1
20220521191739 52 205 1.0 4.0 0.00 0.01 0.00 28 1023.1
20220521191247 52 204 1.0 4.0 0.00 0.01 0.00 27 1023.2
20220521190738 52 123 2.0 4.0 0.00 0.01 0.00 30 1023.2
20220521190237 51 123 2.0 4.0 0.00 0.01 0.00 29 1023.2
20220521185737 51 144 2.0 4.0 0.00 0.01 0.00 33 1023.2
20220521185235 51 144 2.0 5.0 0.00 0.01 0.00 31 1023.2
20220521184734 51 150 2.0 5.0 0.00 0.01 0.00 31 1023.2
20220521184235 51 174 2.0 6.0 0.00 0.01 0.00 30 1023.1
20220521183733 51 179 2.0 7.0 0.00 0.01 0.00 27 1023.1
20220521183233 51 239 2.0 7.0 0.00 0.01 0.00 28 1023.2
20220521182733 52 289 1.0 5.0 0.00 0.01 0.00 32 1023.3
20220521182233 51 284 2.0 5.0 0.00 0.01 0.00 30 1023.3
20220521181732 51 281 2.0 8.0 0.00 0.01 0.00 31 1023.2
20220521181233 52 236 3.0 8.0 0.00 0.01 0.00 30 1023.3
20220521180733 51 338 2.0 7.0 0.00 0.01 0.00 31 1023.2
20220521180231 50 120 1.0 6.0 0.00 0.01 0.00 32 1023.3
20220521175734 50 105 3.0 9.0 0.00 0.01 0.00 31 1023.3
20220521175234 50 105 4.0 9.0 0.00 0.01 0.00 31 1023.3
20220521174732 50 87 4.0 10.0 0.00 0.01 0.00 30 1023.4
20220521174232 50 137 4.0 10.0 0.00 0.01 0.00 29 1023.3
20220521173734 51 99 2.0 7.0 0.00 0.01 0.00 31 1023.3
20220521173232 50 96 3.0 8.0 0.00 0.01 0.00 32 1023.3
20220521172731 50 97 3.0 8.0 0.00 0.01 0.00 32 1023.3
20220521172231 50 0 3.0 8.0 0.00 0.01 0.00 30 1023.4
20220521171739 49 92 3.0 8.0 0.00 0.01 0.00 34 1023.4
20220521171232 49 91 3.0 8.0 0.00 0.01 0.00 31 1023.5
20220521170731 49 355 3.0 8.0 0.00 0.01 0.00 33 1023.4
20220521170232 49 80 4.0 9.0 0.00 0.01 0.00 35 1023.5
20220521165732 49 103 4.0 13.0 0.00 0.01 0.00 31 1023.5
20220521165231 49 92 3.0 13.0 0.00 0.01 0.00 32 1023.6
20220521164731 49 82 4.0 10.0 0.00 0.01 0.00 33 1023.6
20220521164232 48 76 4.0 10.0 0.00 0.01 0.00 36 1023.7
20220521163735 48 67 3.0 9.0 0.00 0.01 0.00 39 1023.7
20220521163231 47 88 2.0 5.0 0.00 0.01 0.00 40 1023.8
20220521162733 47 75 3.0 8.0 0.00 0.01 0.00 39 1023.8
20220521162232 46 69 3.0 8.0 0.00 0.01 0.00 41 1023.8
20220521161733 47 76 3.0 7.0 0.00 0.01 0.00 44 1023.8
20220521161235 46 121 3.0 7.0 0.00 0.01 0.00 36 1023.8
20220521160736 46 144 3.0 8.0 0.00 0.01 0.00 38 1023.8
20220521160232 46 229 1.0 8.0 0.00 0.01 0.00 36 1023.9
20220521155733 46 145 0.0 5.0 0.00 0.01 0.00 39 1024.0
20220521155231 46 146 1.0 5.0 0.00 0.01 0.00 38 1023.9
20220521154731 46 148 3.0 9.0 0.00 0.01 0.00 40 1023.9
20220521154234 45 152 3.0 9.0 0.00 0.01 0.00 40 1023.9
20220521153732 45 155 1.0 5.0 0.00 0.01 0.00 44 1023.9
20220521153232 45 145 1.0 2.0 0.00 0.01 0.00 49 1023.8
20220521152731 44 161 1.0 4.0 0.00 0.01 0.00 49 1023.9
20220521152231 44 162 1.0 5.0 0.00 0.01 0.00 51 1023.9
20220521151732 44 0 2.0 5.0 0.00 0.01 0.00 43 1023.9
20220521151233 43 0 1.0 4.0 0.00 0.01 0.00 57 1023.9
20220521150732 43 168 2.0 4.0 0.00 0.01 0.00 58 1023.8
20220521150235 43 169 2.0 5.0 0.00 0.01 0.00 54 1023.8
20220521145730 42 168 1.0 5.0 0.00 0.01 0.00 45 1023.8
20220521145230 42 94 1.0 6.0 0.00 0.01 0.00 57 1023.7
20220521144729 42 0 2.0 6.0 0.00 0.01 0.00 60 1023.8
20220521144228 42 0 1.0 3.0 0.00 0.01 0.00 58 1023.6
20220521143729 41 0 1.0 4.0 0.00 0.01 0.00 60 1023.8
20220521143228 41 0 2.0 4.0 0.00 0.01 0.00 62 1023.6
20220521142728 41 330 1.0 3.0 0.00 0.01 0.00 63 1023.6
20220521142228 40 330 1.0 2.0 0.00 0.01 0.00 63 1023.6
20220521141729 40 331 1.0 2.0 0.00 0.01 0.00 63 1023.6
20220521141229 40 331 2.0 4.0 0.00 0.01 0.00 63 1023.5
20220521140729 40 331 2.0 4.0 0.00 0.01 0.00 61 1023.5
20220521140228 40 332 2.0 5.0 0.00 0.01 0.00 61 1023.4
20220521135729 40 336 2.0 5.0 0.00 0.01 0.00 63 1023.4
20220521135228 41 337 2.0 6.0 0.00 0.01 0.00 62 1023.4
20220521134729 40 184 2.0 6.0 0.00 0.01 0.00 62 1023.3
20220521134229 40 148 1.0 3.0 0.00 0.01 0.00 63 1023.3
20220521133729 40 153 1.0 6.0 0.00 0.01 0.00 61 1023.2